Regional Weather Roundup
Issued by NWS

Home | Current Version | Previous Version | Graphics & Text | Print | Product List | Glossary On
Versions: 1 2 3 4 5 6 7 8 9 10 11 12 13 14 15 16 17 18 19 20 21 22 23 24 25 26 27 28 29 30 31 32 33 34 35 36 37 38 39 40 41 42 43 44 45 46 47 48 49 50
000
ASUS43 KIND 030909
RWRIN

WEATHER ROUNDUP FOR INDIANA
NATIONAL WEATHER SERVICE INDIANAPOLIS IN
500 AM EDT FRI JUL 03 2015

NOTE: "FAIR" INDICATES FEW OR NO CLOUDS BELOW 12,000 FEET WITH NO
SIGNIFICANT WEATHER AND/OR OBSTRUCTIONS TO VISIBILITY.

* - STATION DOES NOT REPORT WEATHER SUCH AS PRECIPITATION OR FOG.

+ - STATION NOT QUALITY CONTROLLED BY THE NATIONAL WEATHER SERVICE.
    USE DATA WITH CAUTION...ESPECIALLY DEWPOINT AND RELATIVE
    HUMIDITY OBSERVATIONS.

INZ001>003-010>013-019-020-031000-
NORTHWEST INDIANA

CITY           SKY/WX    TMP DP  RH WIND       PRES   REMARKS
GARY /AIRPORT/ CLOUDY    62  59  90 CALM      29.95F
KNOX *+        MOCLDY    55  55 100 NE5       29.94F
LA PORTE +     CLOUDY    59  57  91 E3        29.97F
MICHIGAN CITY+ CLOUDY    54  54 100 CALM      29.97S
MONTICELLO +   CLOUDY    62  57  83 E7        29.92F
RENSSELAER +   CLOUDY    61  59  94 NE6       29.94S
VALPARAISO     CLOUDY    59  55  87 NE6       29.95F

$$

LMZ046-743>745-031000-
SOUTHERN LAKE MICHIGAN

STATION/POSITION TIME  TEMP    WIND        PRES    WAVE
                       AIR SEA DIR/SP/G            HT
                 (UTC) (F)     (DEG/KT/KT) (MB)    (FT)
BURNS HARBOR     0900   60      80/  7/  8 1015.2S
MICHIGAN CITY    0900   60     100/  7/  9   N/A
5NW MICH CITY    0900   60 62  100/  6/  8   N/A     2

$$

INZ004-005-014>016-021>024-031000-
NORTH CENTRAL INDIANA

CITY           SKY/WX    TMP DP  RH WIND       PRES   REMARKS
GOSHEN         MOCLDY    57  54  89 CALM      29.97F
LOGANSPORT +   CLOUDY    61  52  72 NE3       29.94S
PERU/GRISSOM   CLOUDY    61  55  80 NE7       29.92F
ROCHESTER +    MOCLDY    61  55  82 N3        29.95F
SOUTH BEND     MOCLDY    59  53  80 CALM      29.98S
WARSAW +         N/A     55  54  94 E7        29.96F

$$

INZ006>009-017-018-025>027-031000-
NORTHEAST INDIANA

CITY           SKY/WX    TMP DP  RH WIND       PRES   REMARKS
ANGOLA *+        N/A     57  54  88 E5        29.98F
AUBURN +       MOCLDY    54  52  94 NE5       29.98S
FORT WAYNE     MOCLDY    59  54  83 E7        29.96F
HUNTINGTON +   MOCLDY    58  54  87 NE3       29.94F

$$

INZ028-029-035-036-043>045-051>053-031000-
WEST CENTRAL INDIANA

CITY           SKY/WX    TMP DP  RH WIND       PRES   REMARKS
CRAWFORDSVL +  CLOUDY    62  55  79 NE7       29.90S
GREENCASTLE +  CLOUDY    64  57  77 E6        29.89S
LAFAYETTE      CLOUDY    63  56  78 NE8       29.91F
TERRE HAUTE    CLOUDY    68  64  87 NE6       29.86F

$$

INZ030>032-037>040-046>048-054>057-064-065-031000-
CENTRAL INDIANA

CITY           SKY/WX    TMP DP  RH WIND       PRES   REMARKS
CP ATTERBURY + CLOUDY    66  61  82 NE5       29.89R
FRANKFORT +    CLOUDY    64  57  80 NE6       29.93F
GREENWOOD *+   CLOUDY    63  59  88 E8        29.90S
INDIANAPOLIS   CLOUDY    63  60  90 NE10      29.88S
-EAGLE CREEK   CLOUDY    63  60  90 NE6       29.90S
KOKOMO *+      CLOUDY    61  48  63 E6        29.93S
MARION +       MOCLDY    60  54  79 E7        29.94S
MT COMFORT *+  CLOUDY    63  63 100 NE5       29.91S
SHELBYVILLE    RAIN      66  61  84 NE8       29.88F
ZIONSVILLE +   CLOUDY    65  55  70 E6        29.92S

$$

INZ033-034-041-042-049-050-058-059-031000-
EAST CENTRAL INDIANA

CITY           SKY/WX    TMP DP  RH WIND       PRES   REMARKS
MUNCIE         MOCLDY    62  55  77 E10       29.93S

$$

INZ060-061-067>069-081>083-085>088-031000-
SOUTHWEST INDIANA

CITY           SKY/WX    TMP DP  RH WIND       PRES   REMARKS
EVANSVILLE     PTCLDY    70  68  93 N5        29.82F FOG
HUNTINGBURG *+ PTCLDY    68  66  94 CALM      29.84R
WASHINGTON +   CLOUDY    68  64  87 CALM      29.84S FOG

$$

INZ062-063-066-070>080-084-089>092-031000-
SOUTH CENTRAL AND SOUTHEAST INDIANA

CITY           SKY/WX    TMP DP  RH WIND       PRES   REMARKS
BLOOMINGTON    CLOUDY    69  64  84 E9        29.86F
MADISON *+     CLOUDY    68  64  88 NE8       29.88S
NORTH VERNON + CLOUDY    70  70 100 E6        29.88S

$$



USA.gov is the U.S. government's official web portal to all federal, state and local government web resources and services.